TimeCST,TemperatureF,Dew PointF,Humidity,Sea Level PressureIn,VisibilityMPH,Wind Direction,Wind SpeedMPH,Gust SpeedMPH,PrecipitationIn,Events,Conditions,WindDirDegrees,DateUTC
12:04 AM,39.2,37.4,93,30.13,7.0,Calm,Calm,-,N/A,,Partly Cloudy,0,2013-12-30 06:04:00
12:58 AM,39.0,37.9,96,30.12,7.0,Calm,Calm,-,N/A,,Clear,0,2013-12-30 06:58:00
1:24 AM,39.2,37.4,93,30.12,10.0,Calm,Calm,-,N/A,,Partly Cloudy,0,2013-12-30 07:24:00
1:58 AM,37.0,36.0,96,30.13,5.0,Calm,Calm,-,N/A,,Scattered Clouds,0,2013-12-30 07:58:00
2:03 AM,37.4,35.6,93,30.13,2.0,Calm,Calm,-,N/A,,Mostly Cloudy,0,2013-12-30 08:03:00
2:07 AM,37.4,35.6,93,30.13,1.5,Calm,Calm,-,N/A,,Mostly Cloudy,0,2013-12-30 08:07:00
2:14 AM,37.4,35.6,93,30.13,3.0,Calm,Calm,-,N/A,,Mostly Cloudy,0,2013-12-30 08:14:00
2:30 AM,37.4,37.4,100,30.13,7.0,Calm,Calm,-,N/A,,Scattered Clouds,0,2013-12-30 08:30:00
2:58 AM,37.9,36.0,93,30.12,4.0,Calm,Calm,-,N/A,,Mostly Cloudy,0,2013-12-30 08:58:00
3:03 AM,37.4,37.4,100,30.13,2.0,Calm,Calm,-,N/A,,Mostly Cloudy,0,2013-12-30 09:03:00
3:11 AM,37.4,37.4,100,30.13,6.0,Calm,Calm,-,N/A,,Scattered Clouds,0,2013-12-30 09:11:00
3:58 AM,37.0,35.1,93,30.15,10.0,Calm,Calm,-,N/A,,Scattered Clouds,0,2013-12-30 09:58:00
4:22 AM,37.4,35.6,93,30.14,9.0,Calm,Calm,-,N/A,,Mostly Cloudy,0,2013-12-30 10:22:00
4:48 AM,37.4,35.6,93,30.15,7.0,Calm,Calm,-,N/A,,Scattered Clouds,0,2013-12-30 10:48:00
4:58 AM,37.0,36.0,96,30.15,9.0,Calm,Calm,-,N/A,,Partly Cloudy,0,2013-12-30 10:58:00
5:48 AM,39.2,37.4,93,30.14,3.0,Calm,Calm,-,N/A,,Mostly Cloudy,0,2013-12-30 11:48:00
5:58 AM,37.9,36.0,93,30.15,10.0,Calm,Calm,-,N/A,,Mostly Cloudy,0,2013-12-30 11:58:00
6:09 AM,37.4,35.6,93,30.15,10.0,Calm,Calm,-,N/A,,Scattered Clouds,0,2013-12-30 12:09:00
6:58 AM,39.9,37.9,93,30.17,10.0,Calm,Calm,-,0.00,,Clear,0,2013-12-30 12:58:00
7:58 AM,45.0,43.0,93,30.19,10.0,Calm,Calm,-,N/A,,Clear,0,2013-12-30 13:58:00
8:58 AM,48.0,45.0,89,30.20,10.0,Calm,Calm,-,0.00,Rain,Light Rain,0,2013-12-30 14:58:00
9:58 AM,52.0,48.0,86,30.22,10.0,Calm,Calm,-,0.00,,Clear,0,2013-12-30 15:58:00
10:58 AM,55.9,48.9,77,30.22,10.0,Calm,Calm,-,N/A,,Clear,0,2013-12-30 16:58:00
11:58 AM,57.0,46.0,67,30.21,10.0,Calm,Calm,-,N/A,,Clear,0,2013-12-30 17:58:00
12:58 PM,57.9,46.0,65,30.19,10.0,Calm,Calm,-,N/A,,Clear,0,2013-12-30 18:58:00
1:58 PM,57.0,48.0,72,30.17,10.0,SE,3.5,-,N/A,,Clear,140,2013-12-30 19:58:00
2:58 PM,57.0,50.0,77,30.17,10.0,Calm,Calm,-,N/A,,Mostly Cloudy,0,2013-12-30 20:58:00
3:58 PM,54.0,50.0,86,30.19,10.0,Calm,Calm,-,0.00,,Scattered Clouds,0,2013-12-30 21:58:00
4:58 PM,53.1,48.9,86,30.19,10.0,Calm,Calm,-,0.00,Rain,Light Rain,0,2013-12-30 22:58:00
5:58 PM,52.0,48.9,89,30.23,10.0,Calm,Calm,-,0.00,Rain,Light Rain,0,2013-12-30 23:58:00
6:58 PM,51.1,48.9,92,30.22,10.0,Calm,Calm,-,0.00,,Partly Cloudy,0,2013-12-31 00:58:00
7:58 PM,50.0,48.9,96,30.25,10.0,Calm,Calm,-,N/A,,Clear,0,2013-12-31 01:58:00
8:58 PM,51.1,48.9,92,30.26,10.0,Calm,Calm,-,N/A,,Clear,0,2013-12-31 02:58:00
9:58 PM,51.1,48.9,92,30.27,10.0,Calm,Calm,-,N/A,,Clear,0,2013-12-31 03:58:00
10:58 PM,50.0,48.0,93,30.26,10.0,Calm,Calm,-,N/A,,Clear,0,2013-12-31 04:58:00
11:58 PM,50.0,48.0,93,30.27,10.0,Calm,Calm,-,N/A,,Partly Cloudy,0,2013-12-31 05:58:00